Regional Weather Roundup
Issued by NWS

Home | Current Version | Previous Version | Text Only | Print | Product List | Glossary Off
Versions: 1 2 3 4 5 6 7 8 9 10 11 12 13 14 15 16 17 18 19 20 21 22 23 24 25 26 27 28 29 30 31 32 33 34 35 36 37 38 39 40 41 42 43 44 45 46 47 48 49 50

000
ASUS44 KMEG 011900
RWRTN
TENNESSEE HOURLY STATE WEATHER ROUNDUP
NATIONAL WEATHER SERVICE MEMPHIS TN
200 PM CDT TUE SEP 01 2015

TNZ002-004-019-021-049-052-054-088>092-012000-
WEST TENNESSEE

CITY           SKY/WX    TMP DP  RH WIND       PRES   REMARKS
MEMPHIS INTL   PTSUNNY   92  67  43 S6        30.08F HX  95
NWS MEMPHIS      N/A     88 N/A N/A MISG        N/A
JACKSON        PTSUNNY   87  68  52 VRB3      30.11F HX  90
DYERSBURG      MOSUNNY   88  70  55 SW5       30.11F HX  92
UNION CITY     SUNNY     88  70  55 S3        30.10S HX  92
PARIS          SUNNY     84  66  54 SE3       30.12S
LEXINGTON      MOSUNNY   88  68  51 CALM      30.11F HX  91
$$

TNZ008-025-027-028-033-062-065-066-012000-
NORTH MIDDLE TENNESSEE

CITY           SKY/WX    TMP DP  RH WIND       PRES   REMARKS
NASHVILLE      CLOUDY    90  64  42 NE6       30.11F HX  91
CLARKSVILLE    PTSUNNY   89  64  43 VRB5      30.11S HX  90
COOKEVILLE     PTSUNNY   86  70  58 CALM      30.12F HX  90
CROSSVILLE     MOSUNNY   84  63  49 SE7       30.17F
$$

TNZ061-075-076-078-094-096-097-012000-
SOUTH MIDDLE TENNESSEE

CITY           SKY/WX    TMP DP  RH WIND       PRES   REMARKS
FAYETTEVILLE   SUNNY     82  64  54 NE6       30.13S
TULLAHOMA      MOSUNNY   84  64  51 CALM      30.14F
WINCHESTER     MOSUNNY   86  66  51 CALM      30.12F
COLUMBIA       MOSUNNY   88  70  55 S5        30.11S HX  92
SHELBYVILLE    MOSUNNY   88  70  55 VRB3      30.13S HX  92
$$

TNZ017-018-042-046-047-012000-
NORTHEAST TENNESSEE

CITY           SKY/WX    TMP DP  RH WIND       PRES   REMARKS
TRI CITIES     PTSUNNY   88  62  41 CALM      30.14F
ELIZABETHTON   CLEAR     82  64  54 CALM      30.14F
$$

TNZ012-013-036-069-073-074-012000-
CENTRAL EAST TENNESSEE

CITY           SKY/WX    TMP DP  RH WIND       PRES   REMARKS
KNOXVILLE      PTSUNNY   87  71  58 E7        30.11F HX  93
OAK RIDGE      MOSUNNY   88  65  46 E5        30.13F HX  90
GATLINBURG     CLEAR     88  61  40 VRB5      30.11F
$$

TNZ083-085-099-012000-
SOUTHEAST TENNESSEE

CITY           SKY/WX    TMP DP  RH WIND       PRES   REMARKS
CHATTANOOGA    PTSUNNY   87  66  49 N6        30.11F
$$

SKY/WX REPORTED AS FAIR MEANS FEW OR NO CLOUDS BELOW
12 THOUSAND FEET.



USA.gov is the U.S. government's official web portal to all federal, state and local government web resources and services.